User: anonymous   Login
Location: *
(33.3200°N, 8.3381°W)
Time: 15:40:29
(UTC+00:00)
Language:

USA 186 - Orbit

View from above orbital plane
View from above orbital plane
View from above satellite
View from above satellite

Ground track
Ground track

The orbit data is extracted from the following two-line orbital elements,

1 28888U 05042A   20194.10130560 0.00012000  00000-0  53900-4 0    04
2 28888  96.8842 231.2432 0128616 174.9543 185.0455 15.72519616    08
Epoch (UTC): 12 July 2020 02:25:52
Eccentricity: 0.0128616
inclination: 96.8842°
perigee height: 265 km
apogee height: 438 km
right ascension of ascending node: 231.2432°
argument of perigee: 174.9543°
revolutions per day: 15.72519616
mean anomaly at epoch: 185.0455°
orbit number at epoch: 0

The dashed part of the orbit path shows where the satellite is in the earth's shadow,  

DLR